User: anonymous   Login
Location: Caltech
(34.1382°N, 118.1253°W)
Time: 21:56:08
(UTC-07:00)
Language:

Cosmos 2219 Rocket - Orbit

View from above orbital plane
View from above orbital plane
View from above satellite
View from above satellite

Ground track
Ground track

The orbit data is extracted from the following two-line orbital elements,

1 22220U 92076B   16237.79810392  .00000197  00000-0  12295-3 0  9999
2 22220  71.0020 323.1263 0012943 354.6597 143.4879 14.16402500228807
Epoch (UTC): 24 August 2016 19:09:16
Eccentricity: 0.0012943
inclination: 71.0020°
perigee height: 828 km
apogee height: 847 km
right ascension of ascending node: 323.1263°
argument of perigee: 354.6597°
revolutions per day: 14.16402500
mean anomaly at epoch: 143.4879°
orbit number at epoch: 22880

The dashed part of the orbit path shows where the satellite is in the earth's shadow,  

DLR